Regional Weather Roundup
Issued by NWS

Home | Current Version | Previous Version | Graphics & Text | Print | Product List | Glossary On
Versions: 1 2 3 4 5 6 7 8 9 10 11 12 13 14 15 16 17 18 19 20 21 22 23 24 25 26 27 28 29 30 31 32 33 34 35 36 37 38 39 40 41 42 43 44 45 46 47 48 49 50
000
ASUS43 KMKX 050611
RWRWI

WISCONSIN REGIONAL WEATHER ROUNDUP
NATIONAL WEATHER SERVICE MILWAUKEE/SULLIVAN WI
100 AM CDT WED AUG 05 2015

NOTE: "FAIR" INDICATES FEW OR NO CLOUDS BELOW 12,000 FEET WITH NO
SIGNIFICANT WEATHER AND/OR OBSTRUCTIONS TO VISIBILITY.

WIZ001-002-006>008-014>016-023>028-050700-
NORTHWEST WISCONSIN

CITY           SKY/WX    TMP DP  RH WIND       PRES   REMARKS
SUPERIOR ARPT  PTCLDY    53  50  89 NE6       30.08R
6HR MIN TEMP:  53; 6HR MAX TEMP:  64;

ASHLAND        CLEAR     47  47 100 W3        30.08S
6HR MIN TEMP:  47; 6HR MAX TEMP:  67;

HAYWARD        PTCLDY    55  51  86 N3        30.08S
6HR MIN TEMP:  54; 6HR MAX TEMP:  72;

SIREN          CLEAR     59  55  87 E3        30.07S
6HR MIN TEMP:  55; 6HR MAX TEMP:  74;

CUMBERLAND     CLEAR     55  54  94 E6        30.07R
RICE LAKE      CLEAR     55  51  87 CALM      30.08R
6HR MIN TEMP:  55; 6HR MAX TEMP:  73;

CHETEK         CLEAR     61  55  81 NE3       30.06S
6HR MIN TEMP:  61; 6HR MAX TEMP:  75;

LADYSMITH      MOCLDY    57  53  86 NE3       30.08S
6HR MIN TEMP:  56; 6HR MAX TEMP:  73;

EAU CLAIRE     CLEAR     60  56  86 N5        30.03S
6HR MIN TEMP:  59; 6HR MAX TEMP:  76;

MENOMONIE      CLEAR     59  57  92 N3        30.04S
6HR MIN TEMP:  59; 6HR MAX TEMP:  78;

NEW RICHMOND   CLEAR     56  55  95 E3        30.05R
6HR MIN TEMP:  56; 6HR MAX TEMP:  74;

OSCEOLA        CLEAR     56  56 100 CALM      30.07R
6HR MIN TEMP:  56; 6HR MAX TEMP:  76;

$$

WIZ003>005-009-010-017-018-050700-
NORTH CENTRAL WISCONSIN

CITY           SKY/WX    TMP DP  RH WIND       PRES   REMARKS
MANITOWISH WTR   N/A     45  45 100 CALM      30.09R FOG
6HR MIN TEMP:  45; 6HR MAX TEMP:  64;

ARBOR VITAE    CLEAR     52  49  92 CALM      30.09S
6HR MIN TEMP:  52; 6HR MAX TEMP:  64;

WOODRUFF       CLEAR     52  49  92 CALM      30.09S
6HR MIN TEMP:  52; 6HR MAX TEMP:  64;

RHINELANDER    MOCLDY    54  51  90 CALM      30.09S
6HR MIN TEMP:  54; 6HR MAX TEMP:  67;

EAGLE RIVER    CLEAR     46  46 100 CALM      30.08F
6HR MIN TEMP:  46; 6HR MAX TEMP:  65;

LAND O LAKES   CLEAR     43  43  99 CALM      30.10S
6HR MIN TEMP:  43; 6HR MAX TEMP:  65;

PHILLIPS       PTCLDY    55  51  85 NE5       30.08S
6HR MIN TEMP:  55; 6HR MAX TEMP:  68;

TOMAHAWK       CLOUDY    58  52  81 CALM      30.08S
6HR MIN TEMP:  56; 6HR MAX TEMP:  67;

MEDFORD        CLEAR     53  51  94 NE6       30.07S
6HR MIN TEMP:  52; 6HR MAX TEMP:  70;

MERRILL        NOT AVBL
$$

WIZ029-030-035-036-043>047-050700-
CENTRAL WISCONSIN

CITY           SKY/WX    TMP DP  RH WIND       PRES   REMARKS
WAUSAU         CLOUDY    60  53  77 CALM      30.05S
6HR MIN TEMP:  60; 6HR MAX TEMP:  74;

MOSINEE        CLEAR     57  54  88 NE3       30.07S
MARSHFIELD     CLEAR     60  53  77 NE3       30.05S
6HR MIN TEMP:  58; 6HR MAX TEMP:  74; 6HR PCP: TRACE;

STEVENS POINT  CLEAR     52  51  95 CALM      30.06S
6HR MIN TEMP:  52; 6HR MAX TEMP:  72;

WAUPACA        CLEAR     57  55  95 CALM      30.05S
6HR MIN TEMP:  57; 6HR MAX TEMP:  76;

WAUTOMA        CLOUDY    60  55  83 CALM      30.05S
6HR MIN TEMP:  57; 6HR MAX TEMP:  77;

WISC RAPIDS    MOCLDY    58  53  84 CALM      30.06R
6HR MIN TEMP:  56; 6HR MAX TEMP:  76; 6HR PCP: TRACE;

CAMP DOUGLAS   MOCLDY    53  53 100 CALM      30.03S
6HR MIN TEMP:  52; 6HR MAX TEMP:  74;

$$

WIZ011>013-019>022-031-037>040-048>050-050700-
NORTHEAST WISCONSIN

CITY           SKY/WX    TMP DP  RH WIND       PRES   REMARKS
ANTIGO         CLOUDY    57  53  86 NE6       30.08S
SHAWANO        CLOUDY    65  59  81 NE5       30.06S
6HR MIN TEMP:  63; 6HR MAX TEMP:  74;

OCONTO         CLEAR     58  58 100 CALM      30.05R
6HR MIN TEMP:  58; 6HR MAX TEMP:  67;

STURGEON BAY   PTCLDY    61  54  77 CALM      30.08R
6HR MIN TEMP:  61; 6HR MAX TEMP:  66;

GREEN BAY      PTCLDY    60  56  86 NE5       30.05R
6HR MIN TEMP:  59; 6HR MAX TEMP:  75;

MANITOWOC      CLEAR     59  58  96 MISG      30.04S
6HR MIN TEMP:  59; 6HR MAX TEMP:  72;

APPLETON       CLEAR     59  54  82 NE6       30.04S
CLINTONVILLE   PTCLDY    55  54  94 NE5       30.05S
OSHKOSH        CLEAR     59  53  80 CALM      30.03S
6HR MIN TEMP:  57; 6HR MAX TEMP:  75;

$$

WIZ032>034-041-042-053>061-050700-
SOUTHWEST WISCONSIN

CITY           SKY/WX    TMP DP  RH WIND       PRES   REMARKS
LA CROSSE      CLEAR     62  58  86 E3        30.03R
6HR MIN TEMP:  61; 6HR MAX TEMP:  79;

SPARTA         CLEAR     53  51  94 CALM      30.05S
6HR MIN TEMP:  53; 6HR MAX TEMP:  77;

VIROQUA        CLEAR     58  57  98 SW3       30.06R
6HR MIN TEMP:  57; 6HR MAX TEMP:  74;

BOSCOBEL       CLEAR     56  54  93 CALM      30.05R
6HR MIN TEMP:  56; 6HR MAX TEMP:  79;

PRAIRIE DU CHI CLEAR     58  56  91 CALM      30.04S
6HR MIN TEMP:  58; 6HR MAX TEMP:  77;

PLATTEVILLE    PTCLDY    61  55  81 CALM      30.05S
6HR MIN TEMP:  59; 6HR MAX TEMP:  73;

$$

WIZ056-057-062-063-064-067-068-050700-
SOUTH CENTRAL WISCONSIN

CITY           SKY/WX    TMP DP  RH WIND       PRES   REMARKS
REEDSBURG      CLEAR     58  56  93 CALM      30.04S
6HR MIN TEMP:  56; 6HR MAX TEMP:  76;

BARABOO/DELLS  CLEAR     58  52  83 CALM      30.04S
6HR MIN TEMP:  57; 6HR MAX TEMP:  77;

LONE ROCK      CLEAR     56  53  90 CALM      30.05S
6HR MIN TEMP:  56; 6HR MAX TEMP:  78;

MINERAL POINT  CLEAR     63  54  72 CALM      30.05F
MADISON        CLEAR     59  54  83 CALM      30.04R
6HR MIN TEMP:  59; 6HR MAX TEMP:  77;

MIDDLETON      CLEAR     57  54  88 CALM      30.05R
6HR MIN TEMP:  57; 6HR MAX TEMP:  76;

WATERTOWN      CLEAR     57  57 100 CALM      30.03S
6HR MIN TEMP:  57; 6HR MAX TEMP:  75;

MONROE         CLEAR     68  52  56 NW7       30.05S
JANESVILLE     CLEAR     61  57  88 CALM      30.04S
$$

WIZ051-052-058>065-066-070>072-050700-
SOUTHEAST WISCONSIN

CITY           SKY/WX    TMP DP  RH WIND       PRES   REMARKS
MILWAUKEE      PTCLDY    67  55  65 SW3       30.03S
6HR MIN TEMP:  65; 6HR MAX TEMP:  73;

WAUKESHA       CLEAR     57  54  88 CALM      30.05S
MILWAUKEE/TIMM CLEAR     61  52  72 CALM      30.04S
RACINE         CLEAR     65  55  70 W5        30.05S
6HR MIN TEMP:  64; 6HR MAX TEMP:  73;

BURLINGTON     CLEAR     54  53  96 CALM      30.03F
6HR MIN TEMP:  54; 6HR MAX TEMP:  74;

KENOSHA        CLEAR     60  56  86 SW3       30.03F
6HR MIN TEMP:  59; 6HR MAX TEMP:  74;

FOND DU LAC    PTCLDY    57  55  93 CALM      30.03S
6HR MIN TEMP:  57; 6HR MAX TEMP:  76;

SHEBOYGAN      CLEAR     55  53  93 N3        30.03S
6HR MIN TEMP:  55; 6HR MAX TEMP:  75;

WEST BEND      PTCLDY    57  54  88 CALM      30.03F
JUNEAU         PTCLDY    60  55  84 CALM      30.04F
6HR MIN TEMP:  59; 6HR MAX TEMP:  74;

$$

LSZ147-162-050700-
LAKE SUPERIOR

STATION/POSITION TIME  TEMP    WIND        PRES    WAVE
                       AIR SEA DIR/SP/G            HT/PER
                 (UTC) (F)     (DEG/KT/KT) (MB)    (FT/S)
W MID LAKE BUOY  0550   58 57  270/  6/  6 1018.3R   0
DEVILS ISLAND    0600   59     290/  5/  6 1018.8R
PORT WING        0500   58     130/  2/  5 1018.6R
SAXON HARBOR     0500   53     170/  5/  6 1017.6
$$

LMZ867-665-643>646-050700-
LAKE MICHIGAN

STATION/POSITION TIME  TEMP    WIND        PRES    WAVE
                       AIR SEA DIR/SP/G            HT/PER


USA.gov is the U.S. government's official web portal to all federal, state and local government web resources and services.